Change the Weather History Date:

Tuesday, February 28, 2012

  Actual Average (KMWA) Record (KMWA)
Temperature  
Mean Temperature 48 °F -  
Max Temperature 62 °F 47 °F 76 °F (1981)
Min Temperature 33 °F 26 °F 5 °F (1993)
Degree Days  
Heating Degree Days 18    
Moisture  
Dew Point 34 °F    
Average Humidity 60    
Maximum Humidity 75    
Minimum Humidity 39    
Precipitation  
Precipitation 0.00 in - - ()
Sea Level Pressure  
Sea Level Pressure 30.24 in    
Wind  
Wind Speed 5 mph (East)    
Max Wind Speed 13 mph    
Max Gust Speed -    
Visibility 10 miles    
Events Thunderstorm    
Averages and records for this station are not official NWS values.
T = Trace of Precipitation, MM = Missing Value Source: NWS Daily Summary

Daily Weather History Graph

Daily Weather History Graph

Search for Another Location

Airport or City:

Trip Planner

Search our weather history database for the weather conditions in past years. The results will help you decide how hot, cold, wet, or windy it might be!

Date:

Astronomy

Feb. 28, 2012 Rise Set
Actual Time 6:27 AM CST 5:46 PM CST
Civil Twilight 6:01 AM CST 6:12 PM CST
Nautical Twilight 5:31 AM CST 6:43 PM CST
Astronomical Twilight 5:00 AM CST 7:13 PM CST
Moon 9:42 AM CST (2/28) No Moon Set
Length of Visible Light 12h 11m
Length of Day
11h 18m
Waxing Crescent, 38% of the Moon is Illuminated
Feb 28
Waxing Crescent
Feb 29
First Quarter
Mar 8
Full
Mar 14
Last Quarter
Mar 22
New

Hourly Weather History & Observations

Time (CST) Temp. Windchill Dew Point Humidity Pressure Visibility Wind Dir Wind Speed Gust Speed Precip Events Conditions
12:15 AM 37.4 °F 34.9 °F 26.6 °F 65% 30.41 in 10.0 mi NE 3.5 mph - N/A   Clear
12:35 AM 37.4 °F 33.8 °F 26.6 °F 65% 30.40 in 10.0 mi ENE 4.6 mph - N/A   Clear
12:55 AM 35.6 °F 31.7 °F 26.6 °F 70% 30.39 in 10.0 mi NE 4.6 mph - N/A   Clear
1:15 AM 35.6 °F 31.7 °F 26.6 °F 70% 30.40 in 10.0 mi ENE 4.6 mph - N/A   Clear
1:35 AM 35.6 °F 31.7 °F 26.6 °F 70% 30.40 in 10.0 mi NE 4.6 mph - N/A   Clear
1:55 AM 33.8 °F - 26.6 °F 75% 30.40 in 10.0 mi Calm Calm - N/A   Clear
2:15 AM 33.8 °F 30.8 °F 26.6 °F 75% 30.40 in 10.0 mi NE 3.5 mph - N/A   Clear
2:35 AM 33.8 °F - 26.6 °F 75% 30.39 in 10.0 mi Calm Calm - N/A   Clear
2:55 AM 33.8 °F - 26.6 °F 75% 30.39 in 10.0 mi Calm Calm - N/A   Clear
3:15 AM 35.6 °F 31.7 °F 26.6 °F 70% 30.39 in 10.0 mi NE 4.6 mph - N/A   Clear
3:35 AM 33.8 °F 30.8 °F 26.6 °F 75% 30.39 in 10.0 mi NNE 3.5 mph - N/A   Clear
3:55 AM 33.8 °F 30.8 °F 26.6 °F 75% 30.39 in 10.0 mi NNE 3.5 mph - N/A   Clear
4:15 AM 33.8 °F 30.8 °F 26.6 °F 75% 30.39 in 10.0 mi NE 3.5 mph - N/A   Clear
4:35 AM 35.6 °F 32.8 °F 26.6 °F 70% 30.40 in 10.0 mi NE 3.5 mph - N/A   Clear
4:55 AM 35.6 °F 31.7 °F 26.6 °F 70% 30.40 in 10.0 mi NE 4.6 mph - N/A   Clear
5:15 AM 35.6 °F 30.7 °F 26.6 °F 70% 30.40 in 10.0 mi NE 5.8 mph - N/A   Clear
5:35 AM 35.6 °F 30.7 °F 26.6 °F 70% 30.39 in 10.0 mi ENE 5.8 mph - N/A   Clear
5:55 AM 35.6 °F 30.7 °F 26.6 °F 70% 30.39 in 10.0 mi ENE 5.8 mph - N/A   Clear
6:15 AM 35.6 °F 29.2 °F 26.6 °F 70% 30.38 in 10.0 mi East 8.1 mph - N/A   Clear
6:35 AM 35.6 °F 29.2 °F 28.4 °F 75% 30.37 in 10.0 mi ENE 8.1 mph - N/A   Clear
6:55 AM 35.6 °F 29.9 °F 26.6 °F 70% 30.36 in 10.0 mi ENE 6.9 mph - N/A   Clear
7:15 AM 37.4 °F 30.8 °F 28.4 °F 70% 30.36 in 10.0 mi ENE 9.2 mph - N/A   Clear
7:35 AM 37.4 °F 32.1 °F 28.4 °F 70% 30.35 in 10.0 mi East 6.9 mph - N/A   Clear
7:55 AM 39.2 °F 34.2 °F 28.4 °F 65% 30.35 in 10.0 mi East 6.9 mph - N/A   Scattered Clouds
8:15 AM 41.0 °F 34.7 °F 30.2 °F 65% 30.34 in 10.0 mi East 10.4 mph - N/A   Mostly Cloudy
8:35 AM 42.8 °F 38.0 °F 30.2 °F 61% 30.33 in 10.0 mi ESE 8.1 mph - N/A   Scattered Clouds
8:55 AM 44.6 °F 39.2 °F 30.2 °F 57% 30.32 in 10.0 mi East 10.4 mph - N/A   Scattered Clouds
9:15 AM 44.6 °F 39.7 °F 32.0 °F 61% 30.31 in 10.0 mi East 9.2 mph - N/A   Overcast
9:35 AM 46.4 °F 41.5 °F 32.0 °F 57% 30.31 in 10.0 mi ESE 10.4 mph - N/A   Overcast
9:55 AM 46.4 °F 41.1 °F 32.0 °F 57% 30.29 in 10.0 mi East 11.5 mph - N/A   Overcast
10:15 AM 48.2 °F - 32.0 °F 54% 30.28 in 10.0 mi ESE 9.2 mph - N/A   Overcast
10:35 AM 50.0 °F - 32.0 °F 50% 30.28 in 10.0 mi East 8.1 mph - N/A   Overcast
10:55 AM 51.8 °F - 32.0 °F 47% 30.28 in 10.0 mi ESE 5.8 mph - N/A   Overcast
11:15 AM 51.8 °F - 32.0 °F 47% 30.27 in 10.0 mi East 8.1 mph - N/A   Overcast
11:35 AM 51.8 °F - 33.8 °F 50% 30.26 in 10.0 mi East 6.9 mph - N/A   Mostly Cloudy
12:15 PM 53.6 °F - 33.8 °F 47% 30.24 in 10.0 mi East 5.8 mph - N/A   Overcast
12:35 PM 53.6 °F - 33.8 °F 47% 30.21 in 10.0 mi ESE 9.2 mph - N/A   Overcast
12:55 PM 55.4 °F - 33.8 °F 44% 30.20 in 10.0 mi ESE 5.8 mph - N/A   Overcast
1:35 PM 55.4 °F - 35.6 °F 47% 30.18 in 10.0 mi East 4.6 mph - N/A   Overcast
1:55 PM 57.2 °F - 35.6 °F 44% 30.16 in 10.0 mi East 4.6 mph - N/A   Overcast
2:15 PM 59.0 °F - 35.6 °F 42% 30.15 in 10.0 mi NE 4.6 mph - N/A   Mostly Cloudy
2:35 PM 59.0 °F - 35.6 °F 42% 30.14 in 10.0 mi NE 5.8 mph - N/A   Mostly Cloudy
2:55 PM 60.8 °F - 37.4 °F 42% 30.12 in 10.0 mi ENE 9.2 mph - N/A   Mostly Cloudy
3:15 PM 62.6 °F - 37.4 °F 39% 30.10 in 10.0 mi ENE 6.9 mph - N/A   Scattered Clouds
3:35 PM 62.6 °F - 37.4 °F 39% 30.08 in 10.0 mi ENE 8.1 mph - N/A   Clear
3:55 PM 60.8 °F - 41.0 °F 48% 30.08 in 10.0 mi East 6.9 mph - N/A   Clear
4:15 PM 62.6 °F - 41.0 °F 45% 30.06 in 10.0 mi East 8.1 mph - N/A   Scattered Clouds
4:35 PM 62.6 °F - 41.0 °F 45% 30.06 in 10.0 mi East 6.9 mph - N/A   Scattered Clouds
4:55 PM 60.8 °F - 42.8 °F 52% 30.05 in 10.0 mi East 4.6 mph - N/A   Mostly Cloudy
5:15 PM 60.8 °F - 44.6 °F 55% 30.04 in 10.0 mi East 5.8 mph - N/A   Overcast
5:35 PM 60.8 °F - 44.6 °F 55% 30.03 in 10.0 mi East 4.6 mph - N/A   Overcast
6:15 PM 59.0 °F - 44.6 °F 59% 30.03 in 10.0 mi ESE 5.8 mph - N/A   Overcast
6:35 PM 59.0 °F - 44.6 °F 59% 30.03 in 10.0 mi ESE 3.5 mph - N/A   Overcast
6:55 PM 59.0 °F - 44.6 °F 59% 30.02 in 10.0 mi SE 5.8 mph - N/A   Overcast
7:15 PM 59.0 °F - 46.4 °F 63% 29.99 in 10.0 mi ESE 8.1 mph - N/A   Mostly Cloudy
7:35 PM 60.8 °F - 44.6 °F 55% 29.96 in 10.0 mi ESE 10.4 mph - N/A   Scattered Clouds
7:55 PM 59.0 °F - 44.6 °F 59% 29.96 in 10.0 mi SE 9.2 mph - N/A   Clear
8:15 PM 59.0 °F - 44.6 °F 59% 29.96 in 10.0 mi SE 5.8 mph - N/A Thunderstorm Scattered Clouds
8:35 PM 59.0 °F - 46.4 °F 63% 29.92 in 10.0 mi ESE 12.7 mph - N/A   Mostly Cloudy
8:55 PM 59.0 °F - 46.4 °F 63% 29.93 in 10.0 mi SSE 8.1 mph - N/A   Overcast
9:15 PM 60.8 °F - 50.0 °F 68% 29.93 in 10.0 mi SSE 10.4 mph - N/A   Overcast
9:35 PM 62.6 °F - 50.0 °F 63% 29.92 in 10.0 mi South 13.8 mph 18.4 mph N/A   Overcast
9:55 PM 62.6 °F - 51.8 °F 68% 29.89 in 10.0 mi South 17.3 mph 26.5 mph N/A   Light Drizzle
10:15 PM 62.6 °F - 53.6 °F 72% 29.87 in 10.0 mi SSE 17.3 mph 27.6 mph N/A Thunderstorm Unknown
10:35 PM 60.8 °F - 55.4 °F 82% 29.86 in 4.0 mi South 19.6 mph 28.8 mph 0.11 in Rain , Thunderstorm Heavy Thunderstorms and Rain
10:55 PM 60.8 °F - 55.4 °F 82% 29.85 in 10.0 mi South 15.0 mph 26.5 mph 0.11 in Rain , Thunderstorm Light Thunderstorms and Rain
11:15 PM 60.8 °F - 55.4 °F 82% 29.85 in 10.0 mi South 12.7 mph - N/A   Overcast
11:35 PM 62.6 °F - 57.2 °F 82% 29.85 in 10.0 mi South 13.8 mph 18.4 mph N/A Thunderstorm Overcast
11:55 PM 62.6 °F - 57.2 °F 82% 29.82 in 10.0 mi South 17.3 mph 24.2 mph N/A   Overcast